Location: Marcé
(47.5801°N, 0.3280°W)
Time: 08:06:09
(UTC+01:00)

Explorer 7 - Pass Details

Date: 01 December 2021
Orbit: 483 x 674 km, 50.3° (Epoch: 24 January)

Event Time Altitude Azimuth Distance (km) Brightness Sun altitude
Rises 09:21:59 0° 258° (WSW) 2,737 10.0 6.3°
Reaches altitude 10° 09:24:18 10° 260° (W) 1,810 9.1 6.6°
Maximum altitude 09:28:24 72° 345° (NNW) 551 6.8 7.1°
Drops below altitude 10° 09:32:17 10° 71° (ENE) 1,718 9.8 7.6°
Sets 09:34:25 0° 73° (ENE) 2,583 10.7 7.8°
